Terug naar catalogus

CZ-4 DEB

ActiefSSO
NORAD 20793·DEBRIS·🇨🇳 China

Gelanceerd Sep 3, 1990 vanaf Taiyuan Satellite Launch Center

Loading…

Volgende Passages (komende 24 uur)

TLE

VersSource: Space-Track

Epoch: Sep 14, 2026, 22:24 UTC

1 20793U 90081F   26257.93360815  .00000561  00000-0  27799-3 0  9995
2 20793  98.7826 245.3414 0020690  78.2352 282.1145 14.21080731856234

Volg CZ-4 DEB in realtime met AllMySat

Download on the App Store